Location: Waco, TX
(31.5480°N, 97.1670°W)
Time: 00:51:09
(UTC-06:00)

ISS - Pass Details

Date: 21 January 2018
Orbit: 402 x 407 km, 51.6° (Epoch: 21 January)

Event Time Altitude Azimuth Distance (km) Brightness Sun altitude
Rises 19:06:17 0° 191° (SSW) 2,295 0.3 -15.5°
Reaches altitude 10° 19:08:49 10° 170° (S) 1,441 -1.0 -16.1°
Enters shadow 19:10:21 16° 143° (SE) 1,128 -1.8 -16.4°
Maximum altitude 19:11:02 17° 127° (SE) 1,091 - -16.5°
Drops below altitude 10° 19:13:15 10° 84° (E) 1,447 - -17.0°
Sets 19:15:47 0° 63° (ENE) 2,310 - -17.5°
